This is the latest recevied weather packets stored in our database for station/object KA2FNK. If no packets are shown the sender has not sent any weather packets the latest 10 day(s).
| Time | Temp. | Humidity | Pressure | Rain* | Wind** | Luminosity | Snow |
|---|---|---|---|---|---|---|---|
| 1777869117 | 18.33° C | 59% | 1007.3 hPa | 0 mm | - | - | - |
| 1777868816 | 18.33° C | 59% | 1007.4 hPa | 0 mm | - | - | - |
| 1777868515 | 18.89° C | 58% | 1007.4 hPa | 0 mm | - | - | - |
| 1777868214 | 18.89° C | 57% | 1007.3 hPa | 0 mm | - | - | - |
| 1777867913 | 18.89° C | 58% | 1007.3 hPa | 0 mm | - | - | - |
| 1777867612 | 18.33° C | 59% | 1007.1 hPa | 0 mm | - | - | - |
| 1777867311 | 18.33° C | 58% | 1007.2 hPa | 0 mm | - | - | - |
| 1777867010 | 18.33° C | 59% | 1007.2 hPa | 0 mm | - | - | - |
| 1777866709 | 18.33° C | 58% | 1007.2 hPa | 0 mm | - | - | - |
| 1777866408 | 18.89° C | 59% | 1007.2 hPa | 0 mm | - | - | - |
| 1777866107 | 18.89° C | 56% | 1007.3 hPa | 0 mm | - | - | - |
| 1777865806 | 18.89° C | 56% | 1007.3 hPa | 0 mm | - | - | - |
| 1777865505 | 18.89° C | 56% | 1007.5 hPa | 0 mm | - | - | - |
| 1777865204 | 19.44° C | 55% | 1007.5 hPa | 0 mm | - | - | - |
| 1777864903 | 19.44° C | 55% | 1007.5 hPa | 0 mm | - | - | - |
| 1777864602 | 19.44° C | 54% | 1007.5 hPa | 0 mm | - | - | - |
| 1777864301 | 19.44° C | 54% | 1007.4 hPa | 0 mm | - | - | - |
| 1777864000 | 19.44° C | 54% | 1007.4 hPa | 0 mm | - | - | - |
| 1777863699 | 19.44° C | 54% | 1007.4 hPa | 0 mm | - | - | - |
| 1777863398 | 20° C | 54% | 1007.5 hPa | 0 mm | - | - | - |
| 1777863097 | 20° C | 52% | 1007.5 hPa | 0 mm | - | - | - |
| 1777862796 | 20° C | 53% | 1007.5 hPa | 0 mm | - | - | - |
| 1777862495 | 20.56° C | 52% | 1007.4 hPa | 0 mm | - | - | - |
| 1777862194 | 20.56° C | 51% | 1007.4 hPa | 0 mm | - | - | - |
| 1777861893 | 20° C | 49% | 1007.4 hPa | 0 mm | - | - | - |
* Rain latest hour (hover to see other rain measurements)
** Current wind speed in m/s (hover to see current wind gust speed)